Location: Danville Conservation Area
(38.8674°N, 91.5143°W)
Time: 23:57:32
(UTC-06:00)

Envisat - Pass Details

Date: 30 November 2021
Orbit: 764 x 766 km, 98.2° (Epoch: 23 January)

Event Time Altitude Azimuth Distance (km) Brightness Sun altitude
Rises 03:44:37 0° 35° (NE) 3,238 6.7 -38.4°
Reaches altitude 10° 03:48:14 10° 61° (ENE) 2,305 6.1 -37.7°
Maximum altitude 03:50:39 13° 90° (E) 2,070 5.9 -37.2°
Drops below altitude 10° 03:53:05 10° 119° (ESE) 2,297 6.0 -36.8°
Sets 03:56:38 0° 146° (SE) 3,216 6.6 -36.1°
